Regional Weather Roundup
Issued by NWS

Home | Current Version | Previous Version | Graphics & Text | Print | Product List | Glossary On
Versions: 1 2 3 4 5 6 7 8 9 10 11 12 13 14 15 16 17 18 19 20 21 22 23 24 25 26 27 28 29 30 31 32 33 34 35 36 37 38 39 40 41 42 43 44 45 46 47 48 49 50
000
ASUS43 KFSD 281110
RWRSD

WEATHER ROUNDUP FOR SOUTH DAKOTA
NATIONAL WEATHER SERVICE SIOUX FALLS SD
600 AM CDT SUN MAY 28 2017

NOTE: "FAIR" INDICATES FEW OR NO CLOUDS BELOW 12,000 FEET WITH NO
SIGNIFICANT WEATHER AND/OR OBSTRUCTIONS TO VISIBILITY.


SDZ001>005-009-010-012>017-281200-
NORTHWEST AND NORTH CENTRAL SOUTH DAKOTA

CITY           SKY/WX    TMP DP  RH WIND       PRES   REMARKS
BUFFALO          N/A     50  40  68 NW14      29.97R
FAITH            N/A     48  43  82 NW10      29.97R
MOBRIDGE       CLEAR     48  41  76 NW8       29.87R
$$

SDZ012>016-024>037-041>051-057-063-072>074-281200-
SOUTHWEST AND SOUTH CENTRAL SOUTH DAKOTA

CITY           SKY/WX    TMP DP  RH WIND       PRES   REMARKS
RAPID CTY ARPT MOCLDY    52  38  58 W10       30.02S
PIERRE         PTCLDY    55  44  66 NW15      29.88S
CUSTER         CLEAR     50  33  52 NW8       30.13S
ELLSWORTH AFB  CLOUDY    55  39  56 W12       30.02R
PHILIP         PTCLDY    47  42  83 W13       29.96S
PINE RIDGE     PTCLDY    50  43  77 W12       30.06S
SPEARFISH      FAIR      55  37  50 W15       30.09R
WINNER         FAIR      53  45  74 W8        29.93R
$$

SDZ004>011-016>023-039-040-281200-
NORTHEAST SOUTH DAKOTA

CITY           SKY/WX    TMP DP  RH WIND       PRES   REMARKS
ABERDEEN       CLEAR     45  40  82 W3        29.83F
WATERTOWN      CLEAR     48  44  86 NW5       29.82S
BROOKINGS      CLEAR     47  44  90 W7        29.84S
SISSETON         N/A     50  45  83 NW9       29.79S
$$

SDZ017-020-022-023-036>040-048>070-281200-
SOUTHEAST SOUTH DAKOTA

CITY           SKY/WX    TMP DP  RH WIND       PRES   REMARKS
SIOUX FALLS    CLEAR     51  48  89 W6        29.84S
HURON          CLEAR     46  43  89 W6        29.85S
CHAMBERLAIN    PTCLDY    52  46  79 W10       29.90R
MITCHELL       CLEAR     51  45  79 W9        29.86S
YANKTON        CLEAR     51  46  83 SW7       29.89R
$$

ABBREVIATIONS USED IN REMARKS
   TC - TEMPERATURE IN CELSIUS
  WCI - WIND CHILL INDEX
   HX - HEAT INDEX
  VSB - VISIBILITY





USA.gov is the U.S. government's official web portal to all federal, state and local government web resources and services.